Weather History for Lansing, MI

Change the Weather History Date:

Wednesday, January 2, 2013

  Actual Average Record
Temperature  
Mean Temperature 23 °F 24 °F  
Max Temperature 26 °F 31 °F 62 °F (1876)
Min Temperature 19 °F 18 °F -22 °F (1864)
Degree Days  
Heating Degree Days 42 41  
Month to date heating degree days 86 82  
Since 1 July heating degree days 2462 2634  
Cooling Degree Days 0 0  
Month to date cooling degree days 0 0  
Year to date cooling degree days 0 0  
Moisture  
Dew Point 15 °F    
Average Humidity 74    
Maximum Humidity 81    
Minimum Humidity 67    
Precipitation  
Precipitation T in 0.06 in 0.74 in (1951)
Month to date precipitation T 0.12  
Year to date precipitation T 0.12  
Snow  
Snow T in 0.50 in 6.00 in (1884)
Month to date snowfall T 0.9  
Since 1 July snowfall 4.5 17.7  
Snow Depth 2.00 in    
Sea Level Pressure  
Sea Level Pressure 30.15 in    
Wind  
Wind Speed 8 mph (WSW)    
Max Wind Speed 15 mph    
Max Gust Speed 21 mph    
Visibility 9 miles    
Events Snow    
T = Trace of Precipitation, MM = Missing Value Source: NWS Daily Summary

Daily Weather History Graph

Daily Weather History Graph

Search for Another Location

Airport:

Trip Planner

Search our weather history database for the weather conditions in past years. The results will help you decide how hot, cold, wet, or windy it might be!

Date:

Astronomy

Jan. 02, 2013 Rise Set
Actual Time 8:09 AM EST 5:16 PM EST
Civil Twilight 7:36 AM EST 5:48 PM EST
Nautical Twilight 7:01 AM EST 6:23 PM EST
Astronomical Twilight 6:27 AM EST 6:58 PM EST
Moon 10:56 PM EST (1/2) 10:42 AM EST (1/2)
Length of Visible Light 10h 11m
Length of Day
9h 07m
Waning Gibbous, 75% of the Moon is Illuminated
Jan 2
Waning Gibbous
Jan 4
Last Quarter
Jan 11
New
Jan 18
First Quarter
Jan 26
Full

Hourly Weather History & Observations

Time (EST) Temp. Windchill Dew Point Humidity Pressure Visibility Wind Dir Wind Speed Gust Speed Precip Events Conditions
12:53 AM 19.0 °F 8.2 °F 10.9 °F 71% 30.11 in 10.0 mi West 9.2 mph - N/A   Overcast
1:53 AM 19.0 °F 9.0 °F 10.9 °F 71% 30.11 in 10.0 mi West 8.1 mph - N/A   Overcast
2:53 AM 19.0 °F 9.0 °F 10.9 °F 71% 30.12 in 10.0 mi West 8.1 mph - N/A   Overcast
3:53 AM 19.9 °F 7.9 °F 10.9 °F 68% 30.13 in 10.0 mi West 11.5 mph - N/A   Overcast
4:53 AM 19.9 °F 10.1 °F 12.0 °F 71% 30.12 in 10.0 mi West 8.1 mph - N/A   Overcast
5:53 AM 21.0 °F 11.4 °F 12.0 °F 68% 30.12 in 10.0 mi West 8.1 mph - N/A   Overcast
6:53 AM 21.9 °F 13.4 °F 12.9 °F 68% 30.13 in 10.0 mi West 6.9 mph - N/A   Overcast
7:53 AM 21.9 °F 11.7 °F 14.0 °F 72% 30.14 in 9.0 mi West 9.2 mph - 0.00 in Snow Light Snow
8:53 AM 23.0 °F 13.9 °F 14.0 °F 68% 30.14 in 9.0 mi West 8.1 mph - 0.00 in   Overcast
9:53 AM 23.0 °F 12.4 °F 15.1 °F 72% 30.17 in 6.0 mi West 10.4 mph - 0.00 in Snow Light Snow
10:43 AM 24.8 °F 16.1 °F 17.6 °F 74% 30.15 in 4.0 mi West 8.1 mph - N/A Snow Light Snow
10:53 AM 24.1 °F 15.2 °F 17.1 °F 75% 30.20 in 5.0 mi West 8.1 mph - 0.00 in Snow Light Snow
11:10 AM 24.8 °F 15.3 °F 17.6 °F 74% 30.15 in 6.0 mi WNW 9.2 mph - 0.00 in Snow Light Snow
11:53 AM 24.1 °F 17.0 °F 17.1 °F 75% 30.19 in 10.0 mi WNW 5.8 mph - 0.00 in   Overcast
12:53 PM 25.0 °F 16.3 °F 18.0 °F 75% 30.17 in 9.0 mi West 8.1 mph - 0.00 in Snow Light Snow
1:53 PM 25.0 °F 19.3 °F 19.0 °F 78% 30.17 in 7.0 mi West 4.6 mph - 0.00 in Snow Light Snow
2:53 PM 25.0 °F 20.7 °F 19.0 °F 78% 30.15 in 5.0 mi SW 3.5 mph - 0.00 in Snow Light Snow
3:53 PM 25.0 °F 19.3 °F 19.0 °F 78% 30.16 in 9.0 mi West 4.6 mph - 0.00 in Snow Light Snow
4:53 PM 26.1 °F 20.5 °F 18.0 °F 71% 30.17 in 10.0 mi WSW 4.6 mph - 0.00 in   Overcast
5:53 PM 26.1 °F 18.4 °F 19.0 °F 75% 30.18 in 10.0 mi WSW 6.9 mph - N/A   Overcast
6:53 PM 25.0 °F 14.8 °F 18.0 °F 75% 30.19 in 10.0 mi SSW 10.4 mph - N/A   Overcast
7:53 PM 24.1 °F 15.2 °F 18.0 °F 77% 30.20 in 10.0 mi SSW 8.1 mph - N/A   Overcast
8:53 PM 24.1 °F 14.4 °F 17.1 °F 75% 30.18 in 10.0 mi SSW 9.2 mph - N/A   Overcast
9:53 PM 24.1 °F 16.0 °F 17.1 °F 75% 30.17 in 10.0 mi SSW 6.9 mph - N/A   Overcast
10:53 PM 21.9 °F 10.4 °F 15.1 °F 75% 30.18 in 10.0 mi SSW 11.5 mph - N/A   Mostly Cloudy
11:16 PM 19.4 °F 10.4 °F 14.0 °F 80% 30.13 in 9.0 mi SSW 6.9 mph - N/A   Partly Cloudy
11:53 PM 19.0 °F 9.0 °F 14.0 °F 81% 30.17 in 8.0 mi SSW 8.1 mph - N/A   Partly Cloudy